Gorizont

operational
NORAD ID: 13092 Int'l Des: 1982-020 Owner: MSVYAZ Country: SU
HEOCIRCULAR

About Gorizont

Description loading...

Live Position

Loading 3D Globe...

Upcoming Passes

Altitude History

Altitude vs Time

uPlot chart will show altitude changes over time

Two-Line Element Set

1 13092U 82020A 25339.03636223 -.00000042 00000-0 00000-0 0 9991
2 13092 8.7821 302.6679 0033761 254.0490 283.3893 0.98532130119682
Epoch: Dec 5, 2025 • Age: 23 hours

Current Status

Altitude 36282.3 km
Velocity 3.06 km/s
Sub-Earth Point 2.50°N, 26.58°E
Launch Date Mar 15, 1982
Age 43.7 years
Type other

Technical Details

Classification Payload
Mass 2120.00 kg
Dry Mass 2000.00 kg
Total Mass 2120.00 kg
Length 5.50 m
Diameter 3.30 m
Span 9.50 m
Shape Cyl + 2 Pan
Manufacturer NPOPM
Bus Type Gorizont
Phase Status In Orbit
Owner/State MSVYAZ/SU

Large Constellations

Loading constellations...